Location: Campillo
(40.8621°N, 4.2488°W)
Time: 16:46:01
(UTC+00:00)

Cosmos 2084 - Pass Details

Date: 01 October 2021
Orbit: 528 x 653 km, 62.8° (Epoch: 25 October)

Event Time Altitude Azimuth Distance (km) Brightness Sun altitude
Exits shadow 05:36:53 - 295° (WNW) 2,025 5.7 -7.8°
Reaches altitude 10° 05:38:25 10° 314° (NW) 1,810 5.6 -7.5°
Maximum altitude 05:39:19 11° 327° (NNW) 1,779 5.6 -7.3°
Drops below altitude 10° 05:40:13 10° 340° (NNW) 1,824 5.8 -7.2°
Sets 05:44:22 0° 20° (NNE) 2,756 7.2 -6.4°
